Back to catalog

FENGYUN 1C DEB

AliveSSO
NORAD 31371·DEBRIS·🇨🇳 China

Launched May 10, 1999 from Taiyuan Satellite Launch Center

Loading…

Next Passes (next 24 hours)

TLE

FreshSource: Space-Track

Epoch: Sep 13, 2026, 08:14 UTC

1 31371U 99025BSB 26256.34331311  .00000594  00000-0  38384-3 0  9997
2 31371  98.7428 284.6395 0077691 195.4104 164.4698 14.05099059996022

Track FENGYUN 1C DEB in real time with AllMySat

Download on the App Store